Back to catalog

SL-12 R/B(2)

AliveGEO
NORAD 20502·ROCKET BODY·🇷🇺 Russia

Launched Feb 15, 1990 from Baikonur Cosmodrome

Loading…

TLE

FreshSource: Space-Track

Epoch: Sep 14, 2026, 12:47 UTC

1 20502U 90016D   26257.53276274 -.00000224  00000-0  00000-0 0  9992
2 20502  12.3746 334.5837 0041810 247.6641 118.1946  1.00041424133666

Track SL-12 R/B(2) in real time with AllMySat

Download on the App Store